CZ-6A DEB, 55557

Orbit data source: Space-Track

CZ-6A DEB, 55557 is space debris in SSO originally from a launch on Fri, 11 Nov 2022 UTC launched from the Taiyaun Space Center, China (TSC). Debris objects in space refer to the collection of defunct objects orbiting the Earth. Examples of debris include non-operational satellites, rocket bodies, and fragments generated from explosions, collisions, or faulty payload assembly.

Loading next visibility...
Identifier
55557, 2022-151ZF
Orbit
SSO
Country
Flag of CNCN / PRC
Related business
Manufacturer
SAST
Mission
Spacecraft
Bus & Motor
Unknown
Mass
Unknown
Launch date (UTC)
2022-11-11 (4 years ago)
Launch vehicle
Unknown
Launch site
Taiyaun Space Center, China (TSC)
Object type
Payload
Rocket body
Debris
Shape & HBR
Unknown shape, 0.1 m
Radar Cross Section
Small (<0.1 m²)

Expand to show TLE details & history
Last TLE update: 2 days ago

TLE from 2 days ago
0 CZ-6A DEB
1 55557U 22151ZF  26234.93499977  .00000460  00000-0  24552-3 0  9993
2 55557  98.7597 228.7889 0063383 155.3566 205.0660 14.17006888194356
Epoch: 2026-08-22T22:26Z
TLE epoch observation values (Epoch: 2026-08-22T22:26:23.980Z)
Latitude
0.00001°
Longitude
-79.04929°
Altitude
879.878 km
Speed
7.391 km/s
True Right ascension
15h 15m 09s
True Declination
0° 00' 00"
Sunlit
Object was in daylight at epoch
Visualization orbit readout
Latitude
Unknown
Longitude
Unknown
Altitude
Unknown
Speed
Unknown
Apparent Right ascension
Unknown
Apparent Declination
Unknown
Sunlit
N/A
Visualization observer readout
Local Sidereal Time
02:11:46
Azimuth
Unknown
Elevation
Unknown
Doppler factor
Unknown
Orbital elements
Apogee altitude
878.362 km
Perigee altitude
786.954 km
Semi-major axis
7,210.795 km
Eccentricity
0.00634
Inclination
98.7597°
RAAN
228.7889°
Arg. of periapsis
155.3566°
True anomaly
204.76048°
Mean anomaly
205.066°
Eccentric anomaly
204.91302°
Mean motion
3.54461 °/min
Orbital period
101.56 mins
BSTAR
0.00024552
Loading maneuver chart data...
Computing Atmospheric mass density...
Loading historical data...
Loading historical data...
Loading historical data...
Loading historical data...
Loading historical data...
Loading historical data...
Loading historical data...

Documentation

Showing up to 5 results
|